| time (UTC) | temp C | wind direction | speed KPH | gust KPH | rain 1hr cm | rain 24hr cm | rain mn cm | humidity % | barometer mb |
| 20260505053026 | 12 | 285 | 1.6 | 8.0 | 0.00 | 0.00 | 0.00 | 84 | 1012.9 |
| 20260505051518 | 12 | 302 | 0.0 | 6.4 | 0.00 | 0.00 | 0.00 | 83 | 1012.8 |
| 20260505041518 | 13 | 4 | 0.0 | 3.2 | 0.00 | 0.00 | 0.00 | 79 | 1012.3 |
| 20260505040018 | 14 | 268 | 1.6 | 4.8 | 0.00 | 0.00 | 0.00 | 78 | 1012.2 |
| 20260505034520 | 15 | 299 | 1.6 | 9.7 | 0.00 | 0.00 | 0.00 | 76 | 1011.9 |
| 20260505033006 | 15 | 305 | 0.0 | 4.8 | 0.00 | 0.00 | 0.00 | 74 | 1011.6 |
| 20260505031509 | 16 | 314 | 1.6 | 9.7 | 0.00 | 0.00 | 0.00 | 73 | 1011.4 |
| 20260505030012 | 17 | 315 | 1.6 | 6.4 | 0.00 | 0.00 | 0.00 | 70 | 1011.2 |
| 20260505024516 | 17 | 319 | 0.0 | 4.8 | 0.00 | 0.00 | 0.00 | 69 | 1011.0 |
| 20260505023025 | 18 | 288 | 0.0 | 3.2 | 0.00 | 0.00 | 0.00 | 67 | 1010.9 |
| 20260505021513 | 19 | 289 | 0.0 | 6.4 | 0.00 | 0.00 | 0.00 | 65 | 1010.9 |
| 20260505020012 | 20 | 297 | 1.6 | 9.7 | 0.00 | 0.00 | 0.00 | 64 | 1010.6 |
| 20260505014515 | 21 | 286 | 0.0 | 9.7 | 0.00 | 0.00 | 0.00 | 62 | 1010.6 |
| 20260505013018 | 21 | 328 | 3.2 | 8.0 | 0.00 | 0.00 | 0.00 | 59 | 1010.6 |
| 20260505011526 | 22 | 230 | 1.6 | 6.4 | 0.00 | 0.00 | 0.00 | 58 | 1010.5 |
| 20260505010009 | 22 | 350 | 1.6 | 8.0 | 0.00 | 0.00 | 0.00 | 55 | 1010.4 |
| 20260505004518 | 24 | 323 | 1.6 | 6.4 | 0.00 | 0.00 | 0.00 | 53 | 1010.4 |
| 20260505003015 | 25 | 239 | 1.6 | 6.4 | 0.00 | 0.00 | 0.00 | 49 | 1010.3 |
| 20260505001524 | 26 | 280 | 0.0 | 9.7 | 0.00 | 0.00 | 0.00 | 49 | 1010.3 |
| 20260505000026 | 26 | 232 | 3.2 | 11.3 | 0.00 | 0.00 | 0.00 | 46 | 1010.2 |
| 20260504234510 | 27 | 236 | 1.6 | 11.3 | 0.00 | 0.00 | 0.00 | 47 | 1010.2 |
| 20260504233013 | 27 | 259 | 0.0 | 6.4 | 0.00 | 0.00 | 0.00 | 46 | 1010.2 |
| 20260504231520 | 27 | 269 | 1.6 | 9.7 | 0.00 | 0.00 | 0.00 | 47 | 1010.1 |
| 20260504230025 | 28 | 97 | 0.0 | 8.0 | 0.00 | 0.00 | 0.00 | 45 | 1010.2 |
| 20260504224524 | 28 | 252 | 0.0 | 9.7 | 0.00 | 0.00 | 0.00 | 45 | 1010.3 |
| 20260504223014 | 27 | 277 | 3.2 | 12.9 | 0.00 | 0.00 | 0.00 | 42 | 1010.5 |
| 20260504221516 | 27 | 16 | 3.2 | 9.7 | 0.00 | 0.00 | 0.00 | 43 | 1010.5 |
| 20260504220036 | 27 | 278 | 1.6 | 9.7 | 0.00 | 0.00 | 0.00 | 46 | 1010.6 |
| 20260504214526 | 28 | 42 | 3.2 | 11.3 | 0.00 | 0.00 | 0.00 | 48 | 1010.8 |
| 20260504213027 | 27 | 300 | 0.0 | 6.4 | 0.00 | 0.00 | 0.00 | 45 | 1010.9 |
| 20260504211524 | 27 | 106 | 1.6 | 9.7 | 0.00 | 0.00 | 0.00 | 47 | 1011.0 |
| 20260504210018 | 26 | 171 | 3.2 | 8.0 | 0.00 | 0.00 | 0.00 | 48 | 1011.2 |
| 20260504204527 | 26 | 200 | 3.2 | 9.7 | 0.00 | 0.00 | 0.00 | 48 | 1011.3 |
| 20260504203028 | 25 | 5 | 0.0 | 6.4 | 0.00 | 0.00 | 0.00 | 50 | 1011.4 |
| 20260504201528 | 25 | 89 | 3.2 | 8.0 | 0.00 | 0.00 | 0.00 | 50 | 1011.5 |
| 20260504200016 | 25 | 120 | 3.2 | 6.4 | 0.00 | 0.00 | 0.00 | 50 | 1011.7 |
| 20260504194520 | 24 | 115 | 1.6 | 9.7 | 0.00 | 0.00 | 0.00 | 52 | 1011.9 |
| 20260504193026 | 24 | 86 | 1.6 | 9.7 | 0.00 | 0.00 | 0.00 | 53 | 1012.1 |
| 20260504191526 | 23 | 215 | 3.2 | 9.7 | 0.00 | 0.00 | 0.00 | 56 | 1012.1 |
| 20260504190028 | 23 | 172 | 6.4 | 9.7 | 0.00 | 0.00 | 0.00 | 56 | 1012.1 |
| 20260504184520 | 22 | 229 | 3.2 | 9.7 | 0.00 | 0.00 | 0.00 | 57 | 1012.3 |
| 20260504183003 | 22 | 176 | 4.8 | 11.3 | 0.00 | 0.00 | 0.00 | 57 | 1012.3 |
| 20260504181514 | 21 | 157 | 1.6 | 8.0 | 0.00 | 0.00 | 0.00 | 58 | 1012.4 |
| 20260504180012 | 21 | 124 | 3.2 | 8.0 | 0.00 | 0.00 | 0.00 | 59 | 1012.4 |
| 20260504174514 | 20 | 154 | 0.0 | 11.3 | 0.00 | 0.00 | 0.00 | 62 | 1012.4 |
| 20260504173010 | 20 | 99 | 3.2 | 6.4 | 0.00 | 0.00 | 0.00 | 63 | 1012.5 |
| 20260504171547 | 20 | 167 | 4.8 | 8.0 | 0.00 | 0.00 | 0.00 | 64 | 1012.4 |
| 20260504081527 | 11 | 258 | 0.0 | 0.0 | 0.00 | 0.00 | 0.00 | 90 | 1009.6 |